Location: Miss�
(46.9484°N, 0.1922°W)
Time: 03:52:57
(UTC+00:00)

OBJECT-B - Pass Details

Date: 02 March 2021
Orbit: 414 x 427 km, 97.0° (Epoch: 11 April)

Event Time Altitude Azimuth Distance (km) Brightness Sun altitude
Exits shadow 18:49:21 14° 59° (ENE) 1,300 2.7 -11.3°
Drops below altitude 10° 18:50:48 10° 32° (NNE) 1,515 3.3 -11.5°
Sets 18:53:30 0° 6° (N) 2,383 4.5 -12.0°
